Regional Weather Roundup
Issued by NWS

Home | Current Version | Previous Version | Graphics & Text | Print | Product List | Glossary On
Versions: 1 2 3 4 5 6 7 8 9 10 11 12 13 14 15 16 17 18 19 20 21 22 23 24 25 26 27 28 29 30 31 32 33 34 35 36 37 38 39 40 41 42 43 44 45 46 47 48 49 50
000
ASUS43 KLOT 051108
RWRIL

ILLINOIS REGIONAL WEATHER ROUNDUP
NATIONAL WEATHER SERVICE CHICAGO/ROMEOVILLE IL
600 AM CDT THU MAY 05 2016

NOTE: "FAIR" INDICATES FEW OR NO CLOUDS BELOW 12,000 FEET WITH NO
SIGNIFICANT WEATHER AND/OR OBSTRUCTIONS TO VISIBILITY.

* THESE STATIONS ARE NOT UNDER NWS QUALITY CONTROL. THEY ALSO MAY NOT
  REPORT WEATHER SUCH AS PRECIPITATION OR FOG.

ILZ001-002-007-009-015-016-024-051200-
NORTHWEST ILLINOIS

CITY           SKY/WX    TMP DP  RH WIND       PRES   REMARKS
MOLINE         CLEAR     39  35  86 CALM      29.99R
STERLING*      CLEAR     39  36  87 N7        29.98R WCI  34
SAVANNA*       CLEAR     38  34  85 N7        30.00R WCI  32
$$

ILZ003-004-008-010-011-017-018-051200-
NORTH CENTRAL ILLINOIS

CITY           SKY/WX    TMP DP  RH WIND       PRES   REMARKS
ROCKFORD       CLEAR     40  33  76 N10       29.98R
FREEPORT*      CLEAR     36  32  85 N5        30.00R WCI  32
ROCHELLE*      CLEAR     38  33  82 N12       29.96R WCI  31
DE KALB*       CLEAR     38  34  85 N13       29.95R WCI  30
$$

ILZ005-006-012>014-019>023-051200-
NORTHEAST ILLINOIS

CITY           SKY/WX    TMP DP  RH WIND       PRES   REMARKS
CHICAGO-OHARE  PTCLDY    41  33  73 N12       29.93R
CHICAGO-MIDWAY CLOUDY    42  34  73 N15       29.92R
AURORA         CLEAR     40  34  79 N9        29.93R
LANSING*       CLOUDY    41  36  82 N13G21    29.91R
JOLIET*        PTCLDY    44  36  73 N10G18    29.92R
WAUKEGAN       CLEAR     39  33  79 N8        29.93R WCI  33
DUPAGE AIRPORT CLEAR     39  32  76 N10       29.92R WCI  32
KANKAKEE*      CLOUDY    42  36  76 N9        29.91R
WHEELING       PTCLDY    40  33  76 N10       29.94R
MORRIS*        PTCLDY    40  35  83 N5        29.92R
ROMEOVILLE*    MOCLDY    42  33  72 N12       29.92R
NORTHERLY ISL    N/A     41  36  82 N18         N/A
NORTHERLY ISL    N/A     41  36  82 N18         N/A
$$

LMZ740>746-051200-
SOUTHERN LAKE MICHIGAN

STATION/POSITION SKY/WX   TEMP    WIND        PRES    VSBY  WAVE
                          AIR SEA DIR/SP/G                  HT/PER
                          (F)     (DEG/KT/KT) (MB)    (MI)  (FT/S)
SOUTHERN BUOY              40 40   20/ 17/ 21 1012.6R         6/ 7
WILMETTE HARBOR            41 43   30/ 19/ 23   N/A           8/ 7
HARRISON CRIB              42     360/ 24/ 27   N/A
BURNHAM HARBOR             41     350/ 17/ 22   N/A
CALUMET HARBOR             41     340/ 19/ 22 1011.7R
BURNS HARBOR               43      10/ 18/ 24 1012.2R
MICHIGAN CITY              42     360/ 23/ 25   N/A
ST. JOSEPH                 44 46                N/A           7/ 7
$$

ILZ025>027-034>036-040-047-049-050-058-095>099-051200-
WEST-CENTRAL ILLINOIS

CITY           SKY/WX    TMP DP  RH WIND       PRES   REMARKS
QUINCY         CLEAR     42  36  79 N9        29.97R
GALESBURG*     CLEAR     35  33  93 NW5       29.99R WCI  31
MACOMB*        CLEAR     38  36  92 N5        30.00R WCI  34
JACKSONVILLE*  CLEAR     41  37  85 NW7       29.96R
PITTSFIELD*    CLEAR     44  37  77 N5        29.97R
$$

ILZ028>032-037-038-041>044-048-051>054-059>061-051200-
CENTRAL ILLINOIS

CITY           SKY/WX    TMP DP  RH WIND       PRES   REMARKS
PONTIAC        CLOUDY    42  38  86 N12G17    29.93R
BLOOMINGTON    CLEAR     38  37  96 N15       29.92R WCI  29
DECATUR        PTCLDY    41  34  76 N14       29.90R
PEORIA         CLEAR     41  34  76 N7        29.96R
LACON*         CLEAR     39  35  85 NW6       29.95R WCI  35
SPRINGFIELD    CLEAR     42  36  79 N9        29.95R
TAYLORVILLE    CLEAR     40  36  83 N10       29.92R
$$

ILZ033-039-045-046-055>057-062-063-051200-
EAST-CENTRAL ILLINOIS

CITY           SKY/WX    TMP DP  RH WIND       PRES   REMARKS
CHAMPAIGN      CLOUDY    41  36  82 N14       29.88R
RANTOUL*       CLOUDY    45  38  76 N17       29.88R
MATTOON        CLOUDY    42  36  79 N17       29.87R
PARIS*         CLOUDY    43  39  86 N7        29.86R
$$

ILZ079-100>102-051200-
SOUTHWEST ILLINOIS

CITY           SKY/WX    TMP DP  RH WIND       PRES   REMARKS
ALTON          CLEAR     44  38  78 CALM      29.94R
BELLEVILLE     CLEAR     47  40  76 N6        29.91R
CAHOKIA*       CLEAR     49  38  65 N10       29.93R
SPARTA*        CLEAR     47  39  73 NW6       29.91R
$$

ILZ064>066-069>071-074>076-080>082-084>086-088>090-092>094-051200-
SOUTH-CENTRAL ILLINOIS

CITY           SKY/WX    TMP DP  RH WIND       PRES   REMARKS
CARBONDALE     CLEAR     46  39  76 NW7       29.88R
CAIRO*         CLEAR     48  40  74 W6        29.87R
EFFINGHAM*     PTCLDY    43  38  82 NW10G16   29.89R
MARION         PTCLDY    48  41  76 NW6       29.88R
MT. VERNON     PTCLDY    45  36  70 N5        29.88R
CENTRALIA*     CLEAR     46  41  85 N10       29.88R
SALEM*         CLEAR     45  40  81 N9        29.88R
METROPOLIS*    CLEAR     49  43  79 NW8       29.86R
$$

ILZ067-068-072-073-078-083-087-091-051200-
SOUTHEAST ILLINOIS

CITY           SKY/WX    TMP DP  RH WIND       PRES   REMARKS
LAWRENCEVILLE  MOCLDY    45  37  73 N18       29.83R
FLORA*         CLEAR     45  38  77 N8        29.87R
FAIRFIELD*     CLEAR     45  39  77 N8        29.85R
HARRISBURG*    CLEAR     47  41  80 N7        29.86R
ROBINSON*      CLOUDY    43  37  78 N13G18    29.85R
CARMI*         CLEAR     46  41  81 N14G20    29.84R
$$

ABBREVIATIONS USED IN REMARKS
   TC - TEMPERATURE IN CELSIUS
  WCI - WIND CHILL INDEX
   HX - HEAT INDEX
  VSB - VISIBILITY
$$





USA.gov is the U.S. government's official web portal to all federal, state and local government web resources and services.